Location: Beaumont
(50.6402°N, 1.9820°E)
Time: 08:12:22
(UTC+00:00)

Daily predictions for brighter satellites

Satellite Brightness Start Highest point End
(mag) Time Altitude Azimuth Time Altitude Azimuth Time Altitude Azimuth
Cosmos 1934 Rocket 4.4 17:17:13 10° N 17:23:16 45° ENE 17:29:19 10° SE
Nadezhda 3 Rocket 4.1 17:18:24 10° SSE 17:24:31 57° E 17:30:44 10° NNE
Unknown 3.8 17:21:09 10° SW 17:25:14 60° SSE 17:29:20 10° ENE
Unknown 3.5 17:22:33 10° WSW 17:26:23 78° NNW 17:30:14 10° ENE
Unknown 3.8 17:22:45 10° SW 17:26:51 61° SSE 17:30:57 10° ENE
Cosmos 1825 Rocket 3.5 17:22:57 10° N 17:27:21 75° E 17:31:44 10° SSE
H-2A R/B 4.0 17:28:06 10° ENE 17:29:33 11° NE 17:31:00 10° NNE
Cosmos 1953 Rocket 3.6 17:25:32 10° N 17:29:52 56° ENE 17:34:09 10° SSE
CORIOLIS 4.4 17:24:44 10° SSE 17:30:05 78° WSW 17:35:29 10° NNW
Cosmos 1953 2.4 17:26:20 10° S 17:30:19 55° E 17:34:19 10° NNE
Unknown 3.5 17:28:53 10° WSW 17:32:47 81° NNW 17:36:43 10° ENE
Unknown 3.7 17:29:11 10° SW 17:33:17 67° SSE 17:37:24 10° ENE
Unknown 3.7 17:29:27 10° SW 17:33:34 66° SSE 17:37:41 10° ENE
Unknown 3.7 17:30:06 10° SW 17:34:12 67° SSE 17:38:20 10° ENE
YAOGAN 6 3.0 17:31:24 10° SE 17:34:50 40° ENE 17:38:17 10° N
Unknown 2.9 17:32:02 10° WNW 17:35:08 76° NNE 17:38:17 10° ESE
Cosmos 1758 3.6 17:33:48 10° SSW 17:37:46 74° W 17:41:45 10° N
Unknown 3.7 17:34:00 10° WSW 17:38:07 70° SSE 17:42:15 10° ENE
Unknown 3.7 17:34:24 10° WSW 17:38:32 70° SSE 17:42:39 10° ENE
Cosmos 1844 Rocket 2.7 17:33:49 10° SSW 17:39:24 65° ESE 17:45:00 10° NE
Unknown 3.7 17:36:09 10° WSW 17:40:17 73° SSE 17:44:24 10° ENE
FengYun 1-2 T 4.3 17:36:19 10° SSE 17:41:54 66° ENE 17:47:28 10° N
Unknown 3.6 17:39:27 10° WSW 17:43:35 76° SSE 17:47:35 11° ENE
Unknown 3.6 17:39:51 10° WSW 17:43:59 75° SSE 17:47:57 11° ENE
Unknown 3.2 17:42:03 10° WNW 17:44:38 51° SSW 17:47:15 10° SE
Cosmos 1606 Rocket 3.5 17:40:33 10° S 17:44:54 68° E 17:49:15 10° NNE
Unknown 3.6 17:41:01 10° WSW 17:45:10 75° SSE 17:49:06 11° ENE
Cosmos 724 4.5 17:39:01 10° SW 17:45:10 87° NW 17:51:14 10° NE
Unknown 3.6 17:44:11 10° WSW 17:48:20 76° SSE 17:52:08 12° ENE
Envisat 3.0 17:44:06 10° SSE 17:49:11 88° ENE 17:54:19 10° NNW
BREEZE-M DEB (TANK) 4.5 17:46:33 10° SSW 17:49:21 15° SSE 17:51:12 10° ESE
Meteor 1-16 Rocket 4.3 17:44:43 10° S 17:50:05 52° E 17:55:18 10° NNE
Cosmos 1758 Rocket 4.3 17:46:46 10° NNW 17:51:10 60° W 17:55:33 10° S
Unknown 3.6 17:47:38 10° WSW 17:51:47 80° SSE 17:55:27 13° ENE
Unknown 3.6 17:49:19 10° WSW 17:53:28 81° SSE 17:57:04 14° ENE
Cosmos 1461 3.5 17:51:08 10° NNW 17:54:53 36° NE 17:58:04 14° ESE
Cosmos 1908 4.1 17:51:39 10° SSE 17:55:00 28° E 17:58:23 10° NNE
Unknown 3.6 17:50:58 10° WSW 17:55:06 83° SSE 17:58:39 14° ENE
Unknown 3.6 17:52:37 10° WSW 17:56:47 84° SSE 18:00:15 14° ENE
Lacrosse 5 rocket 3.1 17:54:00 10° WNW 17:57:16 29° SW 18:00:41 10° SSE
FALCON 9 DEB 3.4 17:54:08 10° WNW 17:57:35 59° N 18:00:08 17° E
ASTEX 1 3.4 17:52:44 10° N 17:57:40 65° E 18:02:36 10° S
Unknown 3.6 17:55:58 10° WSW 18:00:07 87° SSE 18:03:27 15° ENE
Cosmos 1356 3.8 17:57:00 10° SSE 18:00:14 39° E 18:03:29 10° NNE
Cosmos 2278 Rocket 3.1 17:56:20 10° SSE 18:01:01 27° ESE 18:05:43 10° NE
Cosmos 1939 Rocket 3.4 17:57:59 10° SE 18:01:39 36° ENE 18:05:23 10° N
Unknown 3.6 17:57:38 10° WSW 18:01:48 88° SSE 18:05:04 16° ENE
Unknown 3.3 17:59:25 10° WNW 18:02:48 62° N 18:05:05 19° E
Unknown 3.6 17:59:19 10° WSW 18:03:28 89° SSE 18:06:41 16° ENE
Unknown 3.4 18:00:57 10° WNW 18:04:26 59° N 18:06:45 19° E
Cosmos 1470 4.3 18:00:52 10° SW 18:04:37 39° WNW 18:08:24 10° N
Unknown 3.6 18:00:54 10° WSW 18:05:03 89° S 18:08:12 17° ENE
Cosmos 1844 3.7 17:59:44 10° SSW 18:05:27 80° ESE 18:11:16 10° NNE
Unknown 3.6 18:01:19 10° WSW 18:05:28 90° N 18:08:36 17° ENE
ATLAS 5 CENTAUR R/B 2.0 18:01:32 10° SW 18:05:52 65° NW 18:10:49 10° NE
SKYMED 2 3.5 18:03:12 10° NNE 18:07:34 75° ESE 18:11:54 10° S
Unknown 3.6 18:04:04 10° WSW 18:08:13 89° SSE 18:11:14 18° ENE
Cosmos 1328 3.7 18:04:29 10° N 18:08:29 78° ENE 18:12:26 10° SSE
Unknown 3.6 18:07:26 10° WSW 18:11:36 88° NNW 18:14:29 19° ENE
Cosmos 1076 Rocket 4.5 18:08:34 10° N 18:12:20 27° ENE 18:14:33 18° ESE
Unknown 3.6 18:09:05 10° WSW 18:13:14 87° NNW 18:16:03 20° ENE
YAOGAN 1 2.5 18:09:28 10° SSE 18:13:48 89° ENE 18:18:10 10° NNW
Unknown 3.6 18:10:59 10° WSW 18:15:08 83° NNW 18:17:53 21° ENE
ATLAS CENTAUR R/B 3.9 18:13:00 10° NNW 18:15:38 14° N 18:18:11 10° NE
Unknown 3.6 18:12:21 10° WSW 18:16:31 85° NNW 18:19:12 21° ENE
Falcon 9 debris 3.2 18:13:48 10° WNW 18:17:15 67° NNE 18:18:58 27° E
Unknown 3.6 18:14:02 10° WSW 18:18:12 84° NNW 18:20:49 22° ENE
Cosmos 292 Rocket 3.7 18:15:58 10° S 18:20:37 59° ESE 18:25:19 10° NNE
Unknown 3.6 18:17:24 10° WSW 18:21:33 82° NNW 18:24:03 23° ENE
Unknown 3.6 18:19:05 10° WSW 18:23:14 81° NNW 18:25:40 24° ENE
CSL-04 Rocket 3.9 18:18:34 10° SSE 18:24:06 77° WSW 18:29:38 10° NNW
CZ-4 R/B 2.2 18:20:29 10° S 18:24:35 56° W 18:28:46 10° NNW
Unknown 3.6 18:20:45 10° WSW 18:24:55 80° NNW 18:27:15 25° ENE
USA 238 DEB 4.4 18:19:57 10° S 18:25:31 28° ESE 18:28:53 19° ENE
USA 238 4.4 18:20:05 10° S 18:25:37 28° ESE 18:28:55 19° ENE
Cosmos 1726 Rocket 4.2 18:22:04 10° SSW 18:26:24 59° WNW 18:30:44 10° N
Cosmos 2263 Rocket 4.3 18:22:05 10° W 18:26:31 23° NW 18:30:57 10° NNE
Unknown 3.6 18:22:25 10° WSW 18:26:35 79° NNW 18:28:51 26° ENE
Unknown 3.2 18:23:56 10° WNW 18:27:26 68° NNE 18:28:48 34° E
Shenzhou-11 Module 3.9 18:27:24 10° SW 18:29:16 16° S 18:29:46 16° SSE
Unknown 3.6 18:25:44 10° WSW 18:29:53 78° NNW 18:32:02 27° ENE
Lacrosse 5 1.9 18:24:58 10° WNW 18:30:01 68° NNE 18:32:48 27° ESE
Unknown 3.7 18:27:13 10° W 18:31:22 76° NNW 18:33:27 28° ENE
Cosmos 1726 2.2 18:28:01 10° SSW 18:31:41 78° W 18:35:21 10° N
Ariane Rocket 2.9 18:26:43 10° SSE 18:31:46 68° ENE 18:36:52 10° N
Unknown 3.7 18:27:41 10° W 18:31:51 73° NNW 18:33:54 28° ENE
Cosmos 2228 4.0 18:27:41 10° SSW 18:31:56 49° WNW 18:36:11 10° N
NOAA 11 4.1 18:26:30 10° SSE 18:31:57 78° ENE 18:37:24 10° NNW
Cosmos 1242 Rocket 3.7 18:28:43 10° NNW 18:32:16 46° W 18:35:48 10° S
Unknown 3.7 18:29:19 10° W 18:33:28 73° NNW 18:35:29 29° ENE
Unknown 3.7 18:32:23 10° W 18:36:32 74° NNW 18:38:25 31° ENE
Cosmos 1833 Rocket 2.6 18:33:54 10° NNW 18:39:34 81° ENE 18:44:18 15° SSE
CZ-2D R/B 3.2 18:35:44 10° SSE 18:39:34 84° WSW 18:43:29 10° NNW
ARGOS 4.0 18:38:25 27° E 18:39:45 31° ENE 18:44:27 10° N
Unknown 3.7 18:35:41 10° W 18:39:49 73° NNW 18:41:34 33° ENE
Unknown 3.7 18:37:25 10° W 18:41:35 72° NNW 18:43:15 35° ENE
Cosmos 2058 Rocket 3.6 18:37:25 10° SSW 18:41:44 61° WNW 18:46:04 10° N
Cosmos 921 Rocket 3.7 18:37:49 10° SW 18:42:15 58° WNW 18:46:40 10° NNE
Unknown 3.7 18:39:01 10° W 18:43:09 72° NNW 18:44:46 36° ENE
Unknown 3.7 18:39:22 10° W 18:43:27 69° NNW 18:45:00 36° ENE
Unknown 3.7 18:40:45 10° W 18:44:54 71° N 18:46:26 37° ENE
Cosmos 2084 4.2 18:41:40 10° WSW 18:46:06 53° NW 18:49:25 17° NE
Cosmos 1339 Rocket 4.4 18:41:35 10° S 18:47:40 85° E 18:53:51 10° N
Cosmos 1937 Rocket 4.4 18:43:49 10° N 18:48:12 27° NE 18:48:39 27° ENE
Unknown 3.8 18:44:54 10° W 18:48:55 64° N 18:50:10 40° ENE
SPOT 3 Rocket 3.9 18:48:34 34° ESE 18:50:06 42° ENE 18:55:00 10° N
Cosmos 1777 Rocket 4.4 18:44:58 10° NNW 18:50:09 62° WSW 18:55:16 10° S
NOSS 3-2 (A) 4.0 18:46:08 10° S 18:51:10 31° ESE 18:51:20 31° ESE
Unknown 3.7 18:47:21 10° W 18:51:30 69° N 18:52:46 42° ENE
Unknown 3.5 18:48:07 10° WNW 18:51:50 61° N 18:52:29 50° NE
HJ-1C 3.2 18:51:32 41° SSE 18:52:37 87° ENE 18:56:01 10° NNW
Unknown 3.7 18:49:05 10° W 18:53:13 68° N 18:54:24 43° ENE
Unknown 3.8 18:50:44 10° W 18:54:52 68° N 18:55:59 45° NE
NOSS 3-3 (A) 4.4 18:47:34 10° NW 18:54:54 77° NE 18:59:43 27° SE
NOSS 3-3 (C) 4.4 18:47:40 10° NW 18:54:59 76° NE 18:59:47 27° SE
Cosmos 1459 Rocket 4.1 18:49:09 10° N 18:55:14 54° ENE 18:58:57 24° SE
USA 116 4.2 18:52:16 10° N 18:55:17 46° WNW 18:58:25 10° SW
COSMO-SKYMED 1 4.0 18:51:31 10° N 18:55:34 39° WNW 18:59:37 10° SW
Unknown 3.8 18:52:21 10° W 18:56:30 67° N 18:57:32 46° NE
Cosmos 1605 Rocket 4.4 18:51:52 10° NNW 18:58:01 64° W 19:04:03 10° S
Cosmos 2058 3.0 18:53:57 10° N 18:58:06 52° ENE 18:58:10 51° E
Unknown 3.8 18:54:04 10° W 18:58:12 67° N 18:59:10 48° NE
Gbstr 26 Del rocket 4.2 18:54:18 10° WNW 19:00:26 71° SSW 19:04:05 31° SE
Unknown 3.8 18:57:25 10° W 19:01:33 66° N 19:02:24 51° NE
Cosmos 2082 Rocket 2.1 18:55:55 10° NNW 19:01:42 83° ENE 19:04:38 30° SE
Starlink (trailer) 3.8 18:59:07 10° W 19:03:15 65° N 19:04:01 52° NE
SJ 16-02 2.7 18:59:32 10° N 19:02:24 25° NNE 19:02:24 25° NNE
Abrixas rocket 4.4 19:01:59 10° SSW 19:02:52 16° SSW 19:02:52 16° SSW
Unknown 3.8 19:00:45 10° W 19:04:52 65° N 19:05:34 54° NE
Unknown 3.6 19:01:13 10° WNW 19:05:00 60° N 19:05:15 58° NNE
Unknown 3.8 19:02:21 10° W 19:06:29 65° N 19:07:07 55° NE
Resurs 01 Rocket 3.3 19:09:05 20° NNE 19:09:05 20° NNE 19:11:05 10° N
H-2A R/B 2.3 19:06:52 46° E 19:07:45 50° ENE 19:12:59 10° N
SJ-6B 3.5 19:08:58 38° NNE 19:08:58 38° NNE 19:11:35 10° N
Cosmos 1727 Rocket 3.9 19:02:58 10° S 19:09:09 85° E 19:15:21 10° N
Unknown 3.6 19:07:47 10° WNW 19:11:39 60° N 19:11:44 60° N
Unknown 3.7 19:08:50 10° W 19:12:57 63° N 19:13:18 60° NNE
Unknown 3.7 19:09:07 10° W 19:13:14 63° N 19:13:35 60° NNE
Unknown 3.8 19:09:45 10° W 19:13:53 63° N 19:14:12 60° NNE
Okean 3 Rocket 4.1 19:09:30 10° N 19:13:08 45° NE 19:13:08 45° NE
Cosmos 1802 Rocket 4.0 19:08:51 10° N 19:15:16 63° ENE 19:17:48 37° SE
Unknown 3.8 19:13:41 10° W 19:17:49 62° N 19:17:57 62° N
Unknown 3.8 19:14:06 10° W 19:18:13 62° N 19:18:21 62° N
Cosmos 2173 Rocket 3.9 19:12:16 10° N 19:18:37 77° E 19:22:02 28° SSE
Unknown 3.8 19:15:53 10° W 19:20:00 62° N 19:20:03 62° N
Unknown 3.9 19:19:12 10° W 19:23:14 62° N 19:23:14 62° N
Unknown 3.9 19:19:34 10° W 19:23:36 62° NNW 19:23:36 62° NNW
Cosmos 1844 Rocket 4.5 19:18:49 10° WSW 19:23:45 30° NW 19:28:40 10° NNE
SJ-11-01 4.3 19:22:27 42° S 19:24:02 79° WSW 19:28:45 10° NNW
Unknown 3.9 19:20:46 10° W 19:24:45 61° NNW 19:24:45 61° NNW
Unknown 4.0 19:23:56 10° W 19:27:46 60° NNW 19:27:46 60° NNW
In-Cosmos 22 Rocket 4.0 19:23:54 10° NNW 19:29:18 85° ENE 19:30:27 58° SSE
Unknown 4.1 19:27:25 10° W 19:31:06 57° NW 19:31:06 57° NW
Cosmos 1898 Rocket 3.4 19:27:17 10° NNW 19:32:33 71° ENE 19:32:33 71° ENE
Unknown 4.1 19:29:06 10° W 19:32:43 56° NW 19:32:43 56° NW
Cosmos 1461 4.0 19:30:13 10° NW 19:34:00 38° WSW 19:34:29 36° SW
Unknown 4.2 19:30:45 10° W 19:34:18 54° NW 19:34:18 54° NW
ADEOS Rocket 3.4 19:27:16 10° NNE 19:35:00 62° E 19:42:14 10° S
Unknown 4.3 19:32:25 10° W 19:35:54 53° NW 19:35:54 53° NW
CZ-2C R/B 3.4 19:37:01 58° ENE 19:37:01 58° ENE 19:42:29 10° N
Cosmos 1725 Rocket 3.9 19:30:51 10° N 19:37:04 61° ENE 19:37:15 61° E
Cosmos 2100 Rocket 4.1 19:33:16 10° NNW 19:39:29 73° W 19:43:19 24° S
Unknown 4.4 19:35:47 10° W 19:39:06 50° NW 19:39:06 50° NW
Cosmos 2084 Rocket 3.9 19:35:36 10° NW 19:39:27 63° WNW 19:39:27 63° WNW
Cosmos 1000 Rocket 4.3 19:35:03 10° S 19:41:14 82° E 19:47:31 10° N
Unknown 4.5 19:37:27 10° W 19:40:43 48° NW 19:40:43 48° NW
Cosmos 1812 Rocket 4.4 19:37:21 10° SSW 19:41:39 50° WNW 19:46:01 10° N
Cosmos 2278 Rocket 2.6 19:39:06 10° SW 19:44:43 61° NW 19:50:23 10° NNE
ATLAS 5 CENTAUR R/B 3.7 19:47:38 10° WNW 19:51:28 24° NNW 19:53:19 20° NNE
ATLAS CENTAUR R/B 3.6 19:52:36 10° NNW 19:55:00 20° N 19:55:00 20° N
Cosmos 2016 Rocket 4.0 19:56:04 10° NNW 20:02:19 77° W 20:03:18 63° SSW
SL-08 R/B 4.4 20:01:47 10° NNW 20:07:52 80° W 20:07:52 80° W
Lacrosse 5 3.1 20:08:09 10° WNW 20:12:00 35° WSW 20:12:00 35° WSW
USA 238 DEB 3.6 20:09:03 10° SW 20:15:48 80° NW 20:16:23 74° N
USA 238 3.6 20:09:10 10° SW 20:15:55 80° NW 20:16:25 75° N
Cosmos 2061 Rocket 4.5 20:12:04 10° NNW 20:18:11 57° W 20:19:20 49° SW
ARGOS 3.8 20:19:56 51° W 20:19:56 51° W 20:25:06 10° NNW
SJ 16-02 3.8 20:37:56 10° NW 20:39:24 20° NW 20:39:24 20° NW
Resurs 01 Rocket 4.1 20:46:39 19° NNW 20:46:39 19° NNW 20:47:59 10° NNW
Cosmos 2082 Rocket 4.3 20:41:10 10° NW 20:45:05 19° W 20:46:31 18° WSW
H-2A R/B 3.8 20:47:31 29° W 20:47:31 29° W 20:52:06 10° NNW
